This is the latest recevied weather packets stored in our database for station/object WA6GRA. If no packets are shown the sender has not sent any weather packets the latest 10 day(s).
| Time | Temp. | Humidity | Pressure | Rain* | Wind** | Luminosity | Snow |
|---|---|---|---|---|---|---|---|
| 1777384661 | 10° C | 92% | 1018.6 hPa | 0 mm | - | 48 W/m² | - |
| 1777384062 | 9.44° C | 95% | 1018.4 hPa | 0 mm | - | 36 W/m² | - |
| 1777383461 | 8.89° C | 95% | 1018.1 hPa | 0 mm | - | 24 W/m² | - |
| 1777382860 | 8.33° C | 96% | 1018.1 hPa | 0 mm | - | 15 W/m² | - |
| 1777382257 | 8.33° C | 95% | 1018.1 hPa | 0 mm | - | 8 W/m² | - |
| 1777381653 | 8.33° C | 95% | 1017.9 hPa | 0 mm | - | 3 W/m² | - |
| 1777381052 | 8.33° C | 95% | 1017.8 hPa | 0 mm | - | 1 W/m² | - |
| 1777380451 | 8.33° C | 95% | 1017.8 hPa | 0 mm | - | 0 W/m² | - |
| 1777379850 | 8.33° C | 95% | 1017.8 hPa | 0 mm | - | 0 W/m² | - |
| 1777379246 | 8.33° C | 94% | 1017.9 hPa | 0 mm | - | 0 W/m² | - |
| 1777378643 | 8.33° C | 93% | 1017.6 hPa | 0 mm | - | 0 W/m² | - |
| 1777378039 | 8.89° C | 92% | 1017.6 hPa | 0 mm | - | 0 W/m² | - |
| 1777377434 | 8.89° C | 92% | 1017.8 hPa | 0 mm | - | 0 W/m² | - |
| 1777376834 | 8.89° C | 92% | 1017.9 hPa | 0 mm | - | 0 W/m² | - |
| 1777376233 | 9.44° C | 92% | 1017.9 hPa | 0 mm | - | 0 W/m² | - |
| 1777375629 | 9.44° C | 91% | 1017.8 hPa | 0 mm | - | 0 W/m² | - |
| 1777375026 | 9.44° C | 91% | 1017.7 hPa | 0 mm | - | 0 W/m² | - |
| 1777374424 | 9.44° C | 90% | 1017.6 hPa | 0 mm | - | 0 W/m² | - |
| 1777373822 | 9.44° C | 90% | 1017.9 hPa | 0 mm | - | 0 W/m² | - |
| 1777373221 | 9.44° C | 89% | 1017.7 hPa | 0 mm | - | 0 W/m² | - |
| 1777372617 | 10° C | 88% | 1017.7 hPa | 0 mm | - | 0 W/m² | - |
| 1777372015 | 10° C | 88% | 1017.7 hPa | 0 mm | - | 0 W/m² | - |
| 1777371415 | 10° C | 89% | 1017.4 hPa | 0 mm | - | 0 W/m² | - |
| 1777370813 | 10° C | 87% | 1017.7 hPa | 0 mm | - | 0 W/m² | - |
| 1777370210 | 10.56° C | 87% | 1017.6 hPa | 0 mm | - | 0 W/m² | - |
* Rain latest hour (hover to see other rain measurements)
** Current wind speed in m/s (hover to see current wind gust speed)